Tracking 29777 objects as of 4-Oct-2024
HD Live streaming from Space Station
objects crossing your sky now

STARLINK-5862

Track STARLINK-5862 now!
10-day predictions
STARLINK-5862 is classified as:


NORAD ID: 55920
Int'l Code: 2023-037G
Perigee: 577.1 km
Apogee: 581.3 km
Inclination: 70.0 °
Period: 96.1 minutes
Semi major axis: 6950 km
RCS: Unknown
Launch date: March 17, 2023
Source: United States (US)
Launch site: AIR FORCE WESTERN TEST RANGE (AFWTR)
Your satellite tracking list
Your tracking list is empty




NASA's NSSDC Master Catalog

Two Line Element Set (TLE):
1 55920U 23037G   24277.88246835  .00001353  00000-0  12120-3 0  9993
2 55920  70.0012 160.3176 0003039 270.7204  89.3607 14.98330102 85810
Source of the keplerian elements: AFSPC